Theta_e
291 290 289 289 289 289 289 289 288 288 288 288 287 287 287 287 286 286 287 286 286 286 286 286 287 287 287 287 287 287 286 286 286 285 285 285 284 284 284 283 283 283
290 289 289 289 289 289 289 289 288 288 288 287 287 287 287 286 286 286 286 286 286 286 287 287 287 287 287 287 287 287 287 286 286 286 286 285 285 285 284 283 283 283
290 289 289 289 289 289 288 288 288 288 287 287 287 287 286 286 286 286 286 286 286 287 287 287 287 287 287 287 287 287 287 286 286 286 286 286 285 285 284 284 283 283
289 289 289 289 289 289 288 288 287 287 287 286 286 286 286 286 285 285 286 286 287 287 287 287 287 287 287 287 287 287 286 286 286 286 286 285 285 285 284 284 283 282
289 289 288 288 289 288 288 287 287 287 286 286 286 286 285 285 285 286 286 287 287 287 287 287 287 287 287 287 287 286 286 286 286 286 286 285 285 285 284 284 283 282
289 288 288 288 288 288 288 287 287 286 286 286 285 285 285 285 286 286 287 287 287 287 287 287 287 287 287 287 287 286 286 286 286 286 286 285 285 284 284 283 282 282
289 288 288 288 288 288 288 287 287 286 286 285 285 285 285 286 286 287 287 287 287 287 287 287 287 287 287 287 287 287 286 286 286 286 285 285 284 284 283 283 282 281
289 289 289 289 288 288 287 287 286 286 285 285 285 285 286 286 287 287 287 287 287 287 287 287 287 287 287 287 287 287 286 286 286 286 285 285 284 284 283 283 282 281
289 289 289 288 288 288 287 287 286 285 285 285 285 286 286 287 287 287 287 287 287 287 287 287 287 287 287 287 287 287 287 286 286 286 285 285 284 284 283 283 282 281
289 289 288 288 288 287 287 286 285 285 285 285 285 286 287 287 287 287 287 287 287 287 287 287 287 287 287 287 286 286 286 286 286 285 285 285 285 284 283 283 282 281
288 288 287 287 287 287 286 286 285 285 285 285 286 287 287 287 287 287 287 287 287 287 287 287 287 287 287 287 286 286 286 286 286 285 285 285 285 284 283 282 282 281
287 287 287 287 287 286 286 285 285 285 285 285 286 287 287 287 287 287 287 287 287 287 287 287 287 286 286 286 286 286 286 286 286 285 285 285 284 283 283 282 281 280
287 287 286 286 286 286 286 285 285 285 285 286 287 287 287 287 287 287 287 287 287 287 287 287 286 286 286 286 286 286 286 286 285 285 285 284 284 283 282 282 281 280
287 286 286 286 286 286 285 285 285 285 285 286 287 287 287 287 287 287 287 287 287 287 287 286 286 286 286 286 286 286 286 285 285 285 285 284 283 283 282 281 280 280
286 286 286 286 286 286 285 285 284 284 285 286 287 287 287 287 287 287 287 286 286 286 286 286 286 286 286 286 286 286 286 285 285 285 284 284 283 283 282 281 280 280
286 286 286 286 286 285 285 285 284 284 285 286 287 287 287 287 287 286 286 286 286 286 286 286 286 286 286 286 286 286 285 285 285 284 284 283 283 282 282 281 280 279
286 286 286 286 286 285 285 285 284 284 285 286 286 286 286 286 286 286 286 286 286 286 286 286 286 286 286 286 286 285 285 285 285 284 283 283 282 282 281 281 280 279
286 286 285 285 285 285 285 284 284 284 285 285 285 286 286 286 285 285 286 286 286 286 286 286 286 286 286 285 285 285 285 285 284 284 283 282 282 281 281 280 280 279
286 286 285 285 285 285 284 284 284 284 284 285 285 286 286 285 285 285 285 285 286 286 286 286 286 286 286 285 285 284 284 284 284 284 283 282 282 281 280 280 279 279
285 285 285 285 285 284 284 284 284 284 284 284 285 285 285 285 285 285 285 285 286 286 286 286 286 286 285 285 285 284 283 283 283 283 282 282 281 281 280 279 279 279
285 285 285 285 284 284 284 284 284 283 284 284 284 285 285 286 285 285 285 285 286 286 285 286 286 285 285 285 284 284 282 282 282 282 281 281 281 280 280 279 279 278
285 285 285 285 284 284 284 284 283 283 284 284 284 285 285 285 285 285 285 286 286 285 285 285 285 285 285 284 284 283 281 281 281 281 280 280 280 280 279 278 278 278
285 285 285 284 284 284 284 284 284 284 284 284 284 284 284 284 285 285 285 285 285 285 285 285 285 285 284 284 283 282 281 280 280 280 280 280 280 279 278 278 277 277
285 285 285 284 284 284 284 284 284 284 284 284 284 284 284 285 285 285 285 285 285 285 285 285 285 284 284 283 283 282 280 280 280 280 279 279 279 279 278 277 277 277
286 285 285 285 285 284 284 284 284 284 284 284 284 284 284 285 285 285 285 285 284 284 284 284 284 283 283 283 282 281 280 279 279 279 279 279 279 279 278 277 277 276
286 285 285 285 285 285 285 285 285 285 284 284 284 284 284 284 284 284 284 284 284 284 284 283 283 283 282 282 282 281 280 279 279 279 279 280 279 278 278 277 277 276
Wind_Speed
36 37 36 36 35 34 33 32 31 31 30 29 28 27 26 24 23 21 20 19 18 18 18 17 16 15 15 14 13 13 13 13 12 12 11 10 10 9 8 7 6 5
36 36 35 35 34 33 32 31 30 30 29 28 27 27 25 24 23 21 20 20 19 18 17 16 16 15 14 14 13 13 13 13 12 11 10 10 10 9 8 8 7 6
36 36 35 35 34 33 32 31 30 29 29 28 27 26 25 25 23 21 20 19 19 18 17 16 16 15 14 14 13 13 13 12 11 11 10 9 9 8 8 7 7 6
36 35 35 34 33 33 32 31 30 29 29 28 27 26 25 25 23 22 20 19 18 18 17 16 15 14 14 14 13 13 12 12 11 10 9 8 7 7 7 7 6 6
36 35 35 34 33 33 32 31 31 30 29 28 27 26 25 25 23 22 21 19 18 18 17 16 15 14 14 13 13 13 12 11 10 9 8 7 6 6 5 6 6 6
35 35 35 34 33 32 32 31 31 30 29 28 28 26 25 24 23 22 21 20 18 17 16 16 15 15 14 13 12 12 12 11 10 9 8 6 5 5 5 5 6 7
36 36 35 34 33 32 31 31 31 30 29 28 27 26 25 24 23 22 21 20 18 17 16 16 15 14 13 12 12 11 10 9 8 7 6 5 4 4 5 5 6 7
37 36 35 34 33 32 31 31 31 30 29 28 27 26 25 24 24 22 21 19 18 17 17 16 14 14 13 12 11 9 9 8 6 6 5 4 4 4 5 6 7 7
36 36 35 34 34 33 32 32 31 30 29 28 27 27 26 25 23 22 20 19 18 18 17 16 14 13 12 11 9 8 7 6 5 4 4 4 4 5 6 7 8 8
36 35 35 35 34 34 33 32 32 31 30 28 28 27 27 25 23 21 20 19 19 19 17 16 14 13 12 10 9 7 5 4 3 2 2 3 5 6 7 8 8 9
35 36 36 36 35 34 33 33 32 31 30 29 29 28 27 26 23 22 21 20 20 18 17 16 14 13 12 10 8 6 5 3 2 1 1 3 4 6 7 8 9 10
36 37 37 36 35 34 34 33 33 32 31 30 30 29 27 26 24 23 22 21 20 18 16 15 14 13 11 9 7 6 4 3 2 1 2 3 4 6 7 8 9 10
37 38 38 37 36 35 34 34 33 32 32 31 30 29 27 26 25 24 22 21 20 18 17 16 14 13 11 9 7 6 5 4 4 3 3 4 5 7 8 9 10 11
38 38 38 37 36 35 34 34 33 33 32 32 31 29 28 26 25 25 24 22 21 19 18 16 15 13 11 9 8 7 6 6 5 5 5 5 6 8 9 10 11 11
38 38 37 37 35 34 34 34 34 34 33 32 31 30 28 27 26 26 25 24 23 21 19 17 16 14 11 10 9 8 8 7 7 7 7 7 8 9 10 11 11 12
38 38 38 37 36 35 35 35 35 35 34 34 32 30 29 28 28 27 26 26 25 23 21 19 17 14 12 11 10 10 9 9 9 10 9 9 10 10 11 11 12 12
38 38 38 37 36 36 36 36 36 36 35 34 33 31 30 30 29 29 28 27 26 24 22 20 18 15 14 13 12 11 11 11 12 12 11 11 12 12 12 12 13 13
38 38 38 38 37 37 36 36 36 37 36 35 34 33 32 31 31 31 30 28 27 25 23 20 18 16 15 14 13 13 13 14 14 14 14 13 13 13 13 13 14 14
38 38 38 38 38 37 36 36 37 38 37 36 35 33 33 33 33 32 31 29 28 26 24 22 19 18 17 16 15 15 15 16 17 16 16 15 14 14 14 14 15 15
38 38 39 39 38 37 37 37 38 39 38 37 35 34 34 35 35 34 32 30 28 27 24 22 21 19 18 17 17 16 17 18 19 18 18 17 16 15 16 15 15 16
38 39 39 38 38 38 38 38 39 38 37 36 36 36 36 36 36 35 33 31 29 27 25 24 22 21 20 19 19 18 18 19 20 20 19 18 17 17 17 16 16 16
39 40 39 38 38 38 38 39 39 38 37 37 37 37 37 37 36 35 34 32 31 29 27 26 24 23 22 21 20 19 19 20 21 21 20 20 18 18 18 18 17 17
40 39 39 38 37 38 39 39 39 38 37 37 38 38 38 38 37 36 35 33 32 30 29 28 27 25 24 23 22 21 21 22 22 22 22 21 20 19 20 19 18 18
39 39 38 38 38 39 40 40 39 38 39 38 38 39 39 39 38 37 36 35 33 32 31 30 29 27 25 24 23 23 23 24 24 23 22 22 21 21 21 21 20 19
38 38 38 38 39 40 40 39 39 39 39 38 38 38 38 38 37 37 37 36 35 34 33 32 31 28 26 26 25 25 25 25 25 24 24 24 23 23 23 22 21 20
37 37 38 39 39 40 39 39 38 38 38 38 38 38 37 37 37 37 37 36 35 35 34 34 33 30 28 28 27 27 27 27 26 26 26 25 24 24 24 24 23 22
Wind_Direction
166 165 163 162 160 159 158 157 155 154 153 151 149 147 145 143 143 142 140 137 134 130 126 124 121 118 114 111 106 99 94 90 85 80 74 69 64 62 60 56 54 55
170 168 167 165 163 163 162 160 159 157 156 154 152 150 148 147 147 147 145 141 138 133 129 126 123 119 116 111 103 94 87 81 77 70 62 57 52 46 42 37 33 31
173 172 170 169 167 166 165 163 162 160 158 156 155 154 152 151 151 150 148 144 140 134 131 128 125 121 115 107 96 86 80 74 69 63 55 52 46 35 27 24 18 11
177 176 173 172 170 169 168 166 165 164 161 160 159 158 156 154 153 151 148 146 141 135 132 130 125 119 109 101 94 87 82 78 73 65 55 49 39 27 14 6 1 353
180 178 176 175 174 173 171 170 168 167 165 164 162 161 160 157 156 153 150 146 142 137 134 130 123 116 108 102 100 96 92 88 81 71 60 48 31 14 360 349 343 336
181 180 179 179 178 177 175 174 172 170 168 167 165 163 162 160 159 156 152 148 145 141 136 130 124 119 115 111 109 104 101 95 87 77 66 57 35 7 350 340 334 328
183 182 182 182 182 181 179 177 175 173 171 170 168 166 166 164 162 159 155 152 149 143 138 134 131 128 125 122 118 113 106 98 91 84 73 63 45 10 348 338 330 324
185 185 185 185 184 183 182 179 177 176 174 172 171 170 169 168 165 162 159 156 151 147 144 143 141 138 136 132 126 120 114 107 99 92 78 60 42 14 353 342 330 323
187 187 187 186 185 184 183 181 179 178 177 176 175 173 173 172 169 166 162 159 155 153 153 153 152 149 144 140 137 132 126 121 112 99 79 53 32 10 354 342 330 323
189 188 187 187 186 186 184 182 181 180 180 180 179 177 176 175 173 170 166 163 161 161 162 162 161 158 153 151 150 147 141 135 126 105 68 36 19 3 348 336 327 322
190 188 188 188 188 187 186 184 184 183 183 184 184 181 179 177 175 172 170 169 169 170 171 171 170 166 163 162 162 161 162 162 163 138 29 14 360 346 335 329 324 321
190 189 189 189 190 189 188 187 187 187 186 188 188 185 183 181 178 176 175 175 176 177 179 180 178 176 173 174 177 180 188 201 217 258 323 339 334 328 324 323 321 319
191 191 191 192 192 191 190 190 190 191 191 191 191 190 187 184 181 181 180 181 183 184 187 189 187 185 185 187 194 202 212 226 244 268 293 306 310 314 317 318 318 316
194 194 194 195 195 193 193 194 194 194 195 195 195 194 192 189 187 185 185 186 189 192 194 195 195 195 197 202 210 219 226 238 255 267 278 289 297 305 310 311 312 311
195 196 196 196 196 196 196 197 197 197 198 198 198 197 195 193 191 191 190 191 194 198 199 200 201 205 209 216 223 230 237 247 258 265 274 282 289 296 301 303 306 306
197 197 198 198 198 199 199 199 199 200 200 201 201 199 197 196 195 195 196 198 200 201 203 205 207 212 217 224 231 238 244 252 259 265 269 276 283 288 291 297 302 301
198 199 199 200 201 202 202 202 201 202 204 204 204 202 200 199 199 200 201 204 206 207 208 209 212 217 222 228 234 241 248 255 259 263 267 271 278 283 287 293 297 297
199 200 201 202 203 204 204 204 204 205 206 207 206 204 202 202 203 205 206 208 209 211 212 213 216 221 226 230 236 243 250 256 258 261 266 270 273 279 284 289 293 296
201 202 203 204 205 206 206 206 206 207 208 209 209 207 206 206 207 209 211 211 212 214 215 217 220 225 229 232 237 243 249 256 260 262 265 268 272 277 281 285 289 293
204 205 206 207 207 207 207 208 209 209 210 211 211 209 209 210 211 213 214 215 217 219 219 221 224 227 232 235 238 242 248 255 261 264 266 269 273 276 279 281 285 289
207 208 209 209 209 208 208 209 210 211 211 212 213 213 213 215 215 216 217 219 222 223 223 227 229 231 235 238 240 243 247 251 258 262 265 269 274 277 278 280 283 285
209 210 210 210 209 208 209 210 211 212 213 215 216 216 217 218 218 220 222 224 226 227 228 232 234 234 236 239 242 244 246 250 255 260 264 269 274 276 277 278 281 283
211 211 211 211 210 209 210 212 212 214 216 218 218 217 218 220 221 223 226 228 230 231 233 236 238 237 238 240 242 244 246 249 253 258 262 268 272 274 274 275 278 280
213 213 213 212 212 213 214 214 215 217 220 221 221 221 222 224 225 227 229 231 233 235 238 241 242 240 239 241 243 243 245 248 253 257 261 265 270 270 271 272 275 276
215 215 215 215 216 217 218 218 220 221 223 224 225 226 227 228 228 230 232 234 236 238 241 243 244 242 240 242 244 243 245 248 252 255 258 263 267 268 269 271 272 272
218 218 218 219 220 222 222 222 224 225 226 226 227 228 229 230 231 233 235 237 239 240 242 243 245 245 242 242 243 242 243 248 251 252 256 261 264 265 267 269 270 270